Regional Weather Roundup
Issued by NWS

Home | Current Version | Previous Version | Text Only | Print | Product List | Glossary On
Versions: 1 2 3 4 5 6 7 8 9 10 11 12 13 14 15 16 17 18 19 20 21 22 23 24 25 26 27 28 29 30 31 32 33 34 35 36 37 38 39 40 41 42 43 44 45 46 47 48 49 50
000
ASUS44 KMEG 181810
RWRTN
TENNESSEE HOURLY STATE WEATHER ROUNDUP
NATIONAL WEATHER SERVICE MEMPHIS TN
100 PM CDT FRI AUG 18 2017

TNZ002-004-019-021-049-052-054-088>092-181900-
WEST TENNESSEE

CITY           SKY/WX    TMP DP  RH WIND       PRES   REMARKS
MEMPHIS INTL   MOSUNNY   89  70  53 W10       30.02F HX  94
NWS MEMPHIS      N/A     86 N/A N/A MISG        N/A
JACKSON        SUNNY     86  66  51 N8        30.01F
DYERSBURG      SUNNY     85  68  56 W8        30.02F
SOMERVILLE     SUNNY     86  70  58 CALM      30.01F HX  90
COVINGTON      SUNNY     86  63  45 NW6       30.01F
UNION CITY     SUNNY     84  68  58 VRB6G13   30.00S
BOLIVAR        SUNNY     86  70  58 SW8       30.01F HX  90
PARIS          SUNNY     84  66  54 VRB3G12   30.00F
HUNTINGDON     SUNNY     84  66  54 NW7       30.00F
LEXINGTON      SUNNY     84  66  54 NW10      30.01S
SELMER         SUNNY     84  68  58 W9        30.01F
SAVANNAH       SUNNY     84  70  61 VRB7      30.00F
$$

TNZ008-025-027-028-033-062-065-066-181900-
NORTH MIDDLE TENNESSEE

CITY           SKY/WX    TMP DP  RH WIND       PRES   REMARKS
NASHVILLE      PTSUNNY   87  64  46 W12       30.00S
PORTLAND       MOSUNNY   82  66  57 VRB7G13   29.99S
CLARKSVILLE    MOSUNNY   84  64  50 NW13G18   30.00S
SMYRNA         MOSUNNY   87  67  51 W10       30.00S HX  90
COOKEVILLE     MOSUNNY   84  68  58 W7        30.00S
GALLATIN       PTSUNNY   84  64  51 VRB5      30.01S
CROSSVILLE     MOSUNNY   80  64  58 W15       30.04F
$$

TNZ061-075-076-078-094-096-097-181900-
SOUTH MIDDLE TENNESSEE

CITY           SKY/WX    TMP DP  RH WIND       PRES   REMARKS
FAYETTEVILLE   MOSUNNY   84  68  58 W7G14     30.02S
TULLAHOMA      MOSUNNY   84  64  51 W12       30.03S
WINCHESTER     SUNNY     84  68  58 W7        30.02S
MCMINNVILLE    MOSUNNY   84  70  61 W9        30.01S
COLUMBIA       SUNNY     84  64  51 W8G14     29.99S
SHELBYVILLE    MOSUNNY   84  66  54 W9        30.00F
$$

TNZ017-018-042-046-047-181900-
NORTHEAST TENNESSEE

CITY           SKY/WX    TMP DP  RH WIND       PRES   REMARKS
TRI CITIES     PTSUNNY   77  73  87 SW12      29.99S
ELIZABETHTON   PTSUNNY   77  73  88 SW5       30.00S
$$

TNZ012-013-036-069-073-074-181900-
CENTRAL EAST TENNESSEE

CITY           SKY/WX    TMP DP  RH WIND       PRES   REMARKS
KNOXVILLE      PTSUNNY   85  71  63 W9        29.97F HX  90
OAK RIDGE      MOSUNNY   88  68  51 W9        29.98F HX  91
DOWNTOWN KNOXV MOSUNNY   84  73  70 SW7G13    29.96F HX  91
GATLINBURG     PTSUNNY   82  68  61 W7        29.98S
MORRISTOWN     CLOUDY    81  73  78 SW8G14    29.98F
JACKSBORO      MOSUNNY   86  68  54 VRB7      30.01S
$$

TNZ083-085-099-181900-
SOUTHEAST TENNESSEE

CITY           SKY/WX    TMP DP  RH WIND       PRES   REMARKS
CHATTANOOGA    PTSUNNY   89  66  46 NW8       29.99F HX  91
DAYTON         PTCLDY    88  72  58 VRB6G12   29.97F HX  94
$$

SKY/WX REPORTED AS FAIR MEANS FEW OR NO CLOUDS BELOW
12 THOUSAND FEET.




USA.gov is the U.S. government's official web portal to all federal, state and local government web resources and services.